TimeCST,TemperatureF,Dew PointF,Humidity,Sea Level PressureIn,VisibilityMPH,Wind Direction,Wind SpeedMPH,Gust SpeedMPH,PrecipitationIn,Events,Conditions,WindDirDegrees,DateUTC
12:54 AM,23.0,21.0,92,30.02,8.0,WSW,4.6,-,N/A,,Clear,250,2013-01-08 06:54:00
1:54 AM,21.9,21.0,96,30.03,4.0,SSW,6.9,-,N/A,,Clear,210,2013-01-08 07:54:00
2:54 AM,19.9,18.0,92,30.05,3.0,WNW,4.6,-,N/A,,Clear,290,2013-01-08 08:54:00
2:59 AM,17.6,15.8,93,29.99,1.2,NW,4.6,-,N/A,,Clear,310,2013-01-08 08:59:00
3:06 AM,19.4,19.4,100,29.99,0.5,Calm,Calm,-,N/A,Fog,Light Freezing Fog,0,2013-01-08 09:06:00
3:13 AM,19.4,19.4,100,29.99,2.0,WSW,4.6,-,N/A,,Clear,250,2013-01-08 09:13:00
3:21 AM,17.6,15.8,93,29.99,4.0,WSW,3.5,-,N/A,,Clear,250,2013-01-08 09:21:00
3:33 AM,17.6,15.8,93,29.98,1.5,Calm,Calm,-,N/A,,Clear,0,2013-01-08 09:33:00
3:35 AM,19.4,15.8,86,29.99,0.8,Calm,Calm,-,N/A,,Clear,0,2013-01-08 09:35:00
3:49 AM,17.6,15.8,93,29.98,1.0,SSE,3.5,-,N/A,,Mist,160,2013-01-08 09:49:00
3:54 AM,18.0,16.0,92,30.04,1.5,SSE,4.6,-,N/A,,Scattered Clouds,160,2013-01-08 09:54:00
3:58 AM,17.6,15.8,93,29.98,0.8,South,5.8,-,N/A,,Mist,170,2013-01-08 09:58:00
4:54 AM,16.0,14.0,92,30.04,0.2,Calm,Calm,-,N/A,Fog,Light Freezing Fog,0,2013-01-08 10:54:00
5:54 AM,17.1,14.0,88,30.05,0.2,South,3.5,-,N/A,Fog,Light Freezing Fog,180,2013-01-08 11:54:00
6:54 AM,15.1,10.9,84,30.06,0.2,Calm,Calm,-,N/A,Fog,Light Freezing Fog,0,2013-01-08 12:54:00
8:44 AM,15.8,12.2,86,30.01,1.2,ENE,3.5,-,N/A,,Overcast,70,2013-01-08 14:44:00
8:54 AM,16.0,12.0,84,30.07,0.8,East,3.5,-,N/A,,Overcast,80,2013-01-08 14:54:00
9:13 AM,17.6,14.0,86,30.01,1.2,East,3.5,-,N/A,,Overcast,90,2013-01-08 15:13:00
9:45 AM,19.4,15.8,86,30.01,2.0,East,3.5,-,N/A,,Overcast,90,2013-01-08 15:45:00
9:54 AM,19.9,16.0,85,30.07,2.0,East,4.6,-,N/A,,Overcast,90,2013-01-08 15:54:00
10:11 AM,21.2,17.6,86,30.01,3.0,East,3.5,-,N/A,,Haze,100,2013-01-08 16:11:00
10:54 AM,23.0,19.0,85,30.05,4.0,ENE,4.6,-,N/A,,Clear,60,2013-01-08 16:54:00
11:41 AM,24.8,21.2,86,29.97,2.5,SE,6.9,-,N/A,,Clear,130,2013-01-08 17:41:00
11:54 AM,26.1,21.9,84,30.01,3.0,ESE,5.8,-,N/A,,Clear,110,2013-01-08 17:54:00
12:54 PM,30.9,26.1,82,29.99,6.0,SE,6.9,-,N/A,,Haze,130,2013-01-08 18:54:00
1:54 PM,36.0,26.1,67,29.96,10.0,SE,11.5,-,N/A,,Clear,140,2013-01-08 19:54:00
2:54 PM,36.0,26.1,67,29.94,10.0,SSE,12.7,-,N/A,,Clear,150,2013-01-08 20:54:00
3:54 PM,36.0,26.1,67,29.92,10.0,SSE,12.7,-,N/A,,Clear,160,2013-01-08 21:54:00
4:54 PM,35.1,25.0,67,29.89,10.0,SSE,11.5,20.7,N/A,,Clear,160,2013-01-08 22:54:00
5:54 PM,32.0,25.0,75,29.91,10.0,South,9.2,-,N/A,,Clear,190,2013-01-08 23:54:00
6:54 PM,34.0,26.1,73,29.89,10.0,South,11.5,-,N/A,,Overcast,190,2013-01-09 00:54:00
7:54 PM,33.1,27.0,78,29.87,10.0,South,11.5,-,N/A,,Mostly Cloudy,190,2013-01-09 01:54:00
8:54 PM,34.0,28.0,79,29.87,9.0,South,10.4,23.0,N/A,,Overcast,190,2013-01-09 02:54:00
9:25 PM,33.8,28.4,81,29.80,9.0,South,13.8,-,N/A,,Overcast,190,2013-01-09 03:25:00
9:54 PM,34.0,28.0,79,29.85,9.0,SSW,13.8,-,N/A,,Overcast,210,2013-01-09 03:54:00
10:54 PM,35.1,28.0,76,29.85,9.0,SW,11.5,20.7,N/A,,Overcast,230,2013-01-09 04:54:00
11:54 PM,35.1,28.0,76,29.86,9.0,WSW,16.1,-,N/A,,Overcast,250,2013-01-09 05:54:00